TimeEDT,TemperatureF,Dew PointF,Humidity,Sea Level PressureIn,VisibilityMPH,Wind Direction,Wind SpeedMPH,Gust SpeedMPH,PrecipitationIn,Events,Conditions,WindDirDegrees,DateUTC
12:53 AM,78.1,69.1,74,29.96,10.0,East,4.6,-,N/A,,Partly Cloudy,90,2013-10-15 04:53:00
1:53 AM,77.0,68.0,74,29.94,10.0,ENE,3.5,-,N/A,,Clear,70,2013-10-15 05:53:00
2:53 AM,77.0,69.1,76,29.92,10.0,Calm,Calm,-,N/A,,Clear,0,2013-10-15 06:53:00
3:53 AM,77.0,68.0,74,29.91,10.0,ENE,3.5,-,N/A,,Clear,70,2013-10-15 07:53:00
4:53 AM,75.9,68.0,76,29.91,10.0,ENE,3.5,-,N/A,,Clear,70,2013-10-15 08:53:00
5:53 AM,75.9,68.0,76,29.91,10.0,Calm,Calm,-,N/A,,Clear,0,2013-10-15 09:53:00
6:53 AM,77.0,68.0,74,29.92,10.0,NE,4.6,-,N/A,,Clear,40,2013-10-15 10:53:00
7:53 AM,78.1,68.0,71,29.94,10.0,NE,5.8,-,N/A,,Clear,40,2013-10-15 11:53:00
8:53 AM,80.1,69.1,69,29.95,10.0,NE,8.1,-,N/A,,Clear,50,2013-10-15 12:53:00
9:53 AM,81.0,69.1,67,29.97,10.0,NE,10.4,17.3,N/A,,Clear,50,2013-10-15 13:53:00
10:53 AM,82.0,69.1,65,29.97,10.0,NNE,10.4,17.3,N/A,,Clear,30,2013-10-15 14:53:00
11:53 AM,82.9,70.0,65,29.97,10.0,NE,8.1,-,N/A,,Partly Cloudy,50,2013-10-15 15:53:00
12:53 PM,82.9,71.1,67,29.95,10.0,NNE,9.2,-,N/A,,Clear,20,2013-10-15 16:53:00
1:53 PM,84.0,69.1,61,29.92,10.0,ENE,8.1,-,N/A,,Clear,60,2013-10-15 17:53:00
2:53 PM,84.0,70.0,63,29.90,10.0,NE,8.1,-,N/A,,Clear,50,2013-10-15 18:53:00
3:53 PM,84.0,69.1,61,29.89,10.0,NNE,6.9,-,N/A,,Clear,30,2013-10-15 19:53:00
4:53 PM,84.0,71.1,65,29.89,10.0,NNE,6.9,-,N/A,,Clear,30,2013-10-15 20:53:00
5:53 PM,82.9,71.1,67,29.89,10.0,North,5.8,-,N/A,,Clear,360,2013-10-15 21:53:00
6:53 PM,81.0,71.1,72,29.90,10.0,NNE,3.5,-,N/A,,Clear,20,2013-10-15 22:53:00
7:53 PM,80.1,72.0,76,29.91,10.0,NNW,3.5,-,N/A,,Clear,340,2013-10-15 23:53:00
8:53 PM,79.0,71.1,77,29.93,10.0,Calm,Calm,-,N/A,,Clear,0,2013-10-16 00:53:00
9:53 PM,79.0,72.0,79,29.95,10.0,Calm,Calm,-,N/A,,Clear,0,2013-10-16 01:53:00
10:53 PM,80.1,73.0,79,29.95,10.0,North,4.6,-,N/A,,Mostly Cloudy,360,2013-10-16 02:53:00
11:53 PM,80.1,71.1,74,29.95,10.0,North,5.8,-,N/A,,Partly Cloudy,350,2013-10-16 03:53:00